TimeCST,TemperatureF,Dew PointF,Humidity,Sea Level PressureIn,VisibilityMPH,Wind Direction,Wind SpeedMPH,Gust SpeedMPH,PrecipitationIn,Events,Conditions,WindDirDegrees,DateUTC
12:56 AM,25.0,24.1,96,29.98,-9999.0,ENE,4.6,-,N/A,,Unknown,70,2013-03-05 06:56:00
1:56 AM,25.0,24.1,96,29.99,-9999.0,Calm,Calm,-,N/A,,Unknown,0,2013-03-05 07:56:00
2:56 AM,25.0,23.0,92,30.01,-9999.0,NNE,5.8,-,0.01,,Unknown,20,2013-03-05 08:56:00
3:56 AM,23.0,21.0,92,30.05,-9999.0,North,18.4,-,0.02,,Unknown,10,2013-03-05 09:56:00
4:56 AM,21.9,19.9,92,30.09,-9999.0,North,20.7,-,0.01,,Unknown,10,2013-03-05 10:56:00
5:56 AM,23.0,21.0,92,30.12,-9999.0,North,17.3,-,N/A,,Unknown,10,2013-03-05 11:56:00
6:56 AM,21.9,19.9,92,30.15,-9999.0,North,17.3,-,N/A,,Unknown,350,2013-03-05 12:56:00
7:56 AM,21.9,19.9,92,30.18,-9999.0,North,23.0,-,0.01,,Unknown,350,2013-03-05 13:56:00
8:56 AM,23.0,19.9,88,30.22,-9999.0,North,24.2,-,N/A,,Unknown,350,2013-03-05 14:56:00
9:56 AM,23.0,19.9,88,30.24,-9999.0,North,21.9,-,0.01,,Unknown,350,2013-03-05 15:56:00
10:56 AM,21.9,19.0,89,30.27,-9999.0,North,27.6,-,N/A,,Unknown,350,2013-03-05 16:56:00
11:56 AM,21.9,19.0,89,30.29,-9999.0,North,25.3,-,N/A,,Unknown,350,2013-03-05 17:56:00
12:56 PM,23.0,19.0,85,30.31,-9999.0,North,25.3,33.4,N/A,,Unknown,350,2013-03-05 18:56:00
1:56 PM,24.1,19.9,84,30.32,-9999.0,North,23.0,-,N/A,,Unknown,350,2013-03-05 19:56:00
2:56 PM,24.1,19.0,81,30.33,-9999.0,North,20.7,-,N/A,,Unknown,360,2013-03-05 20:56:00
3:56 PM,23.0,19.0,85,30.36,-9999.0,North,23.0,-,N/A,,Unknown,350,2013-03-05 21:56:00
4:56 PM,21.9,19.0,89,30.39,-9999.0,North,18.4,-,N/A,,Unknown,350,2013-03-05 22:56:00
5:56 PM,21.0,18.0,88,30.41,-9999.0,North,18.4,-,N/A,,Unknown,350,2013-03-05 23:56:00
6:56 PM,21.0,17.1,85,30.43,-9999.0,North,12.7,-,N/A,,Unknown,10,2013-03-06 00:56:00
7:56 PM,19.9,16.0,85,30.43,-9999.0,North,13.8,-,N/A,,Unknown,10,2013-03-06 01:56:00
8:56 PM,19.0,15.1,85,30.45,-9999.0,North,17.3,-,N/A,,Unknown,360,2013-03-06 02:56:00
9:56 PM,19.0,14.0,81,30.47,-9999.0,North,17.3,-,N/A,,Unknown,10,2013-03-06 03:56:00
10:56 PM,18.0,14.0,84,30.47,-9999.0,NNE,15.0,-,N/A,,Unknown,20,2013-03-06 04:56:00
11:56 PM,17.1,12.9,84,30.48,-9999.0,North,11.5,-,N/A,,Unknown,10,2013-03-06 05:56:00